| time (UTC) | temp F | wind direction | speed knots | gust knots | rain 1hr in | rain 24hr in | rain mn in | humidity % | barometer mb |
| 20260904190402 | 97 | 238 | 2.6 | 7.8 | 0.00 | 0.00 | 0.00 | 45 | 1010.9 |
| 20260904185400 | 96 | 163 | 1.7 | 7.8 | 0.00 | 0.00 | 0.00 | 46 | 1011.0 |
| 20260904184345 | 96 | 184 | 2.6 | 7.0 | 0.00 | 0.00 | 0.00 | 47 | 1011.2 |
| 20260904182217 | 95 | 107 | 2.6 | 7.8 | 0.00 | 0.00 | 0.00 | 47 | 1011.5 |
| 20260904181223 | 95 | 92 | 1.7 | 7.8 | 0.00 | 0.00 | 0.00 | 48 | 1011.5 |
| 20260904180153 | 95 | 100 | 1.7 | 7.8 | 0.00 | 0.00 | 0.00 | 48 | 1011.7 |
| 20260904175119 | 94 | 238 | 1.7 | 7.0 | 0.00 | 0.00 | 0.00 | 49 | 1011.8 |
| 20260904174127 | 93 | 161 | 1.7 | 6.1 | 0.00 | 0.00 | 0.00 | 48 | 1011.9 |
| 20260904172026 | 94 | 240 | 1.7 | 5.2 | 0.00 | 0.00 | 0.00 | 47 | 1012.2 |
| 20260904171047 | 93 | 243 | 1.7 | 7.8 | 0.00 | 0.00 | 0.00 | 49 | 1012.3 |
| 20260904164943 | 92 | 173 | 2.6 | 7.8 | 0.00 | 0.00 | 0.00 | 52 | 1012.5 |
| 20260904163920 | 91 | 290 | 2.6 | 7.0 | 0.00 | 0.00 | 0.00 | 56 | 1012.5 |
| 20260904161747 | 90 | 186 | 1.7 | 7.0 | 0.00 | 0.00 | 0.00 | 56 | 1012.7 |
| 20260904160735 | 89 | 140 | 0.9 | 7.0 | 0.00 | 0.00 | 0.00 | 62 | 1012.7 |
| 20260904155754 | 88 | 202 | 1.7 | 7.0 | 0.00 | 0.00 | 0.00 | 62 | 1012.6 |
| 20260904154751 | 87 | 211 | 1.7 | 6.1 | 0.00 | 0.00 | 0.00 | 64 | 1012.6 |
| 20260904153742 | 86 | 223 | 0.9 | 6.1 | 0.00 | 0.00 | 0.00 | 67 | 1012.6 |
| 20260904152804 | 85 | 86 | 0.9 | 4.3 | 0.00 | 0.00 | 0.00 | 70 | 1012.6 |
| 20260904151807 | 84 | 115 | 0.9 | 5.2 | 0.00 | 0.00 | 0.00 | 73 | 1012.6 |
| 20260904145620 | 84 | 161 | 1.7 | 6.1 | 0.00 | 0.00 | 0.00 | 73 | 1012.6 |
| 20260904143458 | 83 | 141 | 0.9 | 7.0 | 0.00 | 0.00 | 0.00 | 75 | 1012.4 |
| 20260904142456 | 82 | 245 | 0.9 | 5.2 | 0.00 | 0.00 | 0.00 | 77 | 1012.4 |
| 20260904141428 | 81 | 132 | 0.0 | 2.6 | 0.00 | 0.00 | 0.00 | 78 | 1012.4 |
| 20260904140440 | 81 | 182 | 0.0 | 5.2 | 0.00 | 0.00 | 0.00 | 79 | 1012.3 |
| 20260904135401 | 81 | 173 | 0.9 | 5.2 | 0.00 | 0.00 | 0.00 | 79 | 1012.4 |
| 20260904134342 | 81 | 184 | 0.0 | 7.0 | 0.00 | 0.00 | 0.00 | 79 | 1012.3 |
| 20260904133316 | 80 | 160 | 0.9 | 7.0 | 0.00 | 0.00 | 0.00 | 79 | 1012.2 |
| 20260904131212 | 80 | 111 | 0.0 | 1.7 | 0.00 | 0.00 | 0.00 | 80 | 1012.0 |
| 20260904130139 | 80 | 94 | 0.0 | 0.0 | 0.00 | 0.00 | 0.00 | 80 | 1011.8 |
| 20260904125150 | 79 | 116 | 0.0 | 4.3 | 0.00 | 0.00 | 0.00 | 81 | 1011.7 |
| 20260904124135 | 79 | 134 | 0.0 | 2.6 | 0.00 | 0.00 | 0.00 | 81 | 1011.6 |
| 20260904123154 | 79 | 138 | 0.0 | 0.0 | 0.00 | 0.00 | 0.00 | 81 | 1011.6 |
| 20260904122129 | 79 | 138 | 0.0 | 0.9 | 0.00 | 0.00 | 0.00 | 81 | 1011.4 |
| 20260904114907 | 79 | 139 | 0.0 | 0.0 | 0.00 | 0.00 | 0.00 | 80 | 1011.3 |
| 20260904113836 | 79 | 138 | 0.0 | 1.7 | 0.00 | 0.00 | 0.00 | 80 | 1011.2 |
| 20260904112806 | 79 | 138 | 0.0 | 1.7 | 0.00 | 0.00 | 0.00 | 80 | 1011.2 |
| 20260904111818 | 79 | 139 | 0.0 | 0.0 | 0.00 | 0.00 | 0.00 | 80 | 1011.2 |
| 20260904110816 | 79 | 139 | 0.0 | 0.0 | 0.00 | 0.00 | 0.00 | 80 | 1011.2 |
| 20260904105825 | 79 | 139 | 0.0 | 0.0 | 0.00 | 0.00 | 0.00 | 80 | 1011.2 |
| 20260904103718 | 79 | 139 | 0.0 | 0.0 | 0.00 | 0.00 | 0.00 | 79 | 1011.1 |
| 20260904102722 | 79 | 119 | 0.0 | 0.0 | 0.00 | 0.00 | 0.00 | 79 | 1011.0 |
| 20260904101709 | 79 | 119 | 0.0 | 1.7 | 0.00 | 0.00 | 0.00 | 79 | 1011.0 |
| 20260904100652 | 79 | 132 | 0.0 | 0.9 | 0.00 | 0.00 | 0.00 | 79 | 1010.9 |
| 20260904094444 | 80 | 132 | 0.0 | 0.9 | 0.00 | 0.00 | 0.00 | 78 | 1010.8 |
| 20260904093439 | 80 | 132 | 0.0 | 0.0 | 0.00 | 0.00 | 0.00 | 78 | 1010.9 |
| 20260904092457 | 80 | 142 | 0.0 | 0.0 | 0.00 | 0.00 | 0.00 | 77 | 1010.9 |
| 20260904090307 | 80 | 117 | 0.0 | 1.7 | 0.00 | 0.00 | 0.00 | 77 | 1010.7 |
| 20260904085301 | 80 | 129 | 0.0 | 4.3 | 0.00 | 0.00 | 0.00 | 77 | 1010.7 |
| 20260904084303 | 80 | 139 | 0.0 | 1.7 | 0.00 | 0.00 | 0.00 | 76 | 1010.7 |
| 20260904083251 | 80 | 139 | 0.0 | 0.0 | 0.00 | 0.00 | 0.00 | 76 | 1010.6 |
| 20260904082218 | 80 | 149 | 0.0 | 0.0 | 0.00 | 0.00 | 0.00 | 76 | 1010.6 |
| 20260904081144 | 80 | 149 | 0.0 | 0.0 | 0.00 | 0.00 | 0.00 | 76 | 1010.7 |
| 20260904080139 | 80 | 167 | 0.0 | 1.7 | 0.00 | 0.00 | 0.00 | 75 | 1010.7 |
| 20260904075136 | 80 | 177 | 0.0 | 1.7 | 0.00 | 0.00 | 0.00 | 75 | 1010.6 |
| 20260904074121 | 80 | 153 | 0.0 | 0.0 | 0.00 | 0.00 | 0.00 | 75 | 1010.7 |
| 20260904073130 | 80 | 153 | 0.0 | 3.5 | 0.00 | 0.00 | 0.00 | 74 | 1010.7 |
| 20260904072113 | 80 | 182 | 0.0 | 1.7 | 0.00 | 0.00 | 0.00 | 74 | 1010.8 |
| 20260904071043 | 80 | 211 | 0.0 | 5.2 | 0.00 | 0.00 | 0.00 | 73 | 1010.9 |
| 20260904070047 | 80 | 211 | 0.0 | 3.5 | 0.00 | 0.00 | 0.00 | 73 | 1011.0 |
| 20260904065107 | 80 | 97 | 0.9 | 4.3 | 0.00 | 0.00 | 0.00 | 73 | 1011.0 |
| 20260904064030 | 80 | 175 | 0.0 | 2.6 | 0.00 | 0.00 | 0.00 | 72 | 1011.0 |
| 20260904063037 | 80 | 136 | 0.0 | 4.3 | 0.00 | 0.00 | 0.00 | 71 | 1011.1 |
| 20260904062028 | 80 | 184 | 0.0 | 3.5 | 0.00 | 0.00 | 0.00 | 70 | 1011.1 |
| 20260904061042 | 81 | 118 | 0.0 | 0.0 | 0.00 | 0.00 | 0.00 | 69 | 1011.2 |
| 20260904053708 | 81 | 146 | 0.9 | 3.5 | 0.00 | 0.00 | 0.00 | 66 | 1011.1 |
| 20260904052713 | 81 | 195 | 0.0 | 2.6 | 0.00 | 0.00 | 0.00 | 65 | 1011.1 |
| 20260904050514 | 82 | 108 | 0.9 | 4.3 | 0.00 | 0.00 | 0.00 | 64 | 1011.0 |
| 20260904045452 | 82 | 148 | 0.9 | 4.3 | 0.00 | 0.00 | 0.00 | 63 | 1010.8 |
| 20260904044435 | 82 | 133 | 0.9 | 5.2 | 0.00 | 0.00 | 0.00 | 63 | 1010.9 |
| 20260904043434 | 83 | 167 | 0.9 | 5.2 | 0.00 | 0.00 | 0.00 | 63 | 1010.9 |
| 20260904042401 | 83 | 184 | 0.9 | 4.3 | 0.00 | 0.00 | 0.00 | 64 | 1010.9 |
| 20260904041353 | 83 | 162 | 0.0 | 3.5 | 0.00 | 0.00 | 0.00 | 64 | 1010.8 |
| 20260904040320 | 83 | 167 | 0.9 | 5.2 | 0.00 | 0.00 | 0.00 | 64 | 1010.9 |
| 20260904034148 | 83 | 153 | 0.9 | 5.2 | 0.00 | 0.00 | 0.00 | 63 | 1010.9 |
| 20260904033159 | 84 | 155 | 0.9 | 6.1 | 0.00 | 0.00 | 0.00 | 63 | 1010.9 |
| 20260904032155 | 84 | 113 | 1.7 | 7.0 | 0.00 | 0.00 | 0.00 | 62 | 1011.0 |
| 20260904031154 | 84 | 121 | 1.7 | 7.8 | 0.00 | 0.00 | 0.00 | 62 | 1010.9 |
| 20260904030152 | 84 | 90 | 1.7 | 7.8 | 0.00 | 0.00 | 0.00 | 63 | 1010.8 |
| 20260904025129 | 84 | 101 | 0.9 | 5.2 | 0.00 | 0.00 | 0.00 | 64 | 1010.7 |
| 20260904024126 | 85 | 165 | 0.9 | 7.8 | 0.00 | 0.00 | 0.00 | 64 | 1010.5 |
| 20260904023143 | 85 | 225 | 1.7 | 7.8 | 0.00 | 0.00 | 0.00 | 64 | 1010.4 |
| 20260904022117 | 85 | 136 | 1.7 | 6.1 | 0.00 | 0.00 | 0.00 | 64 | 1010.2 |
| 20260904021121 | 86 | 187 | 1.7 | 6.1 | 0.00 | 0.00 | 0.00 | 62 | 1010.0 |
| 20260904020127 | 86 | 109 | 1.7 | 6.1 | 0.00 | 0.00 | 0.00 | 61 | 1009.8 |
| 20260904015109 | 87 | 219 | 1.7 | 6.1 | 0.00 | 0.00 | 0.00 | 59 | 1009.5 |
| 20260904014042 | 87 | 113 | 1.7 | 6.1 | 0.00 | 0.00 | 0.00 | 58 | 1009.4 |
| 20260904013017 | 87 | 144 | 1.7 | 6.1 | 0.00 | 0.00 | 0.00 | 58 | 1009.3 |
| 20260904011944 | 88 | 161 | 1.7 | 10.4 | 0.00 | 0.00 | 0.00 | 58 | 1009.2 |
| 20260904010925 | 88 | 141 | 1.7 | 10.4 | 0.00 | 0.00 | 0.00 | 58 | 1009.0 |
| 20260904005939 | 88 | 143 | 0.9 | 6.1 | 0.00 | 0.00 | 0.00 | 58 | 1009.0 |
| 20260904004925 | 89 | 88 | 1.7 | 6.1 | 0.00 | 0.00 | 0.00 | 58 | 1008.8 |
| 20260904003848 | 89 | 257 | 1.7 | 7.0 | 0.00 | 0.00 | 0.00 | 57 | 1008.8 |
| 20260904002847 | 89 | 183 | 0.9 | 7.0 | 0.00 | 0.00 | 0.00 | 57 | 1008.8 |
| 20260904001826 | 90 | 187 | 1.7 | 6.1 | 0.00 | 0.00 | 0.00 | 57 | 1008.8 |
| 20260904000805 | 90 | 122 | 1.7 | 7.8 | 0.00 | 0.00 | 0.00 | 56 | 1008.6 |
| 20260903233432 | 92 | 147 | 1.7 | 7.0 | 0.00 | 0.00 | 0.00 | 55 | 1008.4 |
| 20260903232403 | 92 | 164 | 1.7 | 7.0 | 0.00 | 0.00 | 0.00 | 56 | 1008.4 |
| 20260903231354 | 92 | 164 | 1.7 | 7.0 | 0.00 | 0.00 | 0.00 | 56 | 1008.2 |
| 20260903230319 | 92 | 153 | 2.6 | 7.0 | 0.00 | 0.00 | 0.00 | 55 | 1008.1 |
| 20260903224154 | 93 | 109 | 1.7 | 7.8 | 0.00 | 0.00 | 0.00 | 53 | 1008.2 |
| 20260903223153 | 93 | 104 | 1.7 | 5.2 | 0.00 | 0.00 | 0.00 | 55 | 1008.2 |
| 20260903222118 | 92 | 153 | 1.7 | 9.6 | 0.00 | 0.00 | 0.00 | 55 | 1008.2 |
| 20260903221048 | 92 | 136 | 2.6 | 9.6 | 0.00 | 0.00 | 0.00 | 54 | 1008.3 |
| 20260903220050 | 94 | 131 | 1.7 | 9.6 | 0.00 | 0.00 | 0.00 | 53 | 1008.2 |
| 20260903215025 | 94 | 127 | 1.7 | 7.8 | 0.00 | 0.00 | 0.00 | 54 | 1008.3 |
| 20260903212910 | 93 | 125 | 3.5 | 9.6 | 0.00 | 0.00 | 0.00 | 55 | 1008.3 |
| 20260903211858 | 94 | 132 | 3.5 | 7.8 | 0.00 | 0.00 | 0.00 | 54 | 1008.4 |
| 20260903204552 | 93 | 116 | 1.7 | 8.7 | 0.00 | 0.00 | 0.00 | 56 | 1008.9 |
| 20260903203554 | 93 | 193 | 2.6 | 8.7 | 0.00 | 0.00 | 0.00 | 57 | 1009.0 |
| 20260903202536 | 92 | 149 | 1.7 | 7.0 | 0.00 | 0.00 | 0.00 | 56 | 1009.2 |
| 20260903201536 | 93 | 194 | 1.7 | 10.4 | 0.00 | 0.00 | 0.00 | 55 | 1009.3 |
| 20260903200513 | 93 | 5 | 2.6 | 10.4 | 0.00 | 0.00 | 0.00 | 58 | 1009.3 |
| 20260903195529 | 93 | 96 | 3.5 | 8.7 | 0.00 | 0.00 | 0.00 | 56 | 1009.3 |
| 20260903194531 | 92 | 180 | 2.6 | 11.3 | 0.00 | 0.00 | 0.00 | 58 | 1009.4 |
| 20260903193455 | 92 | 123 | 2.6 | 11.3 | 0.00 | 0.00 | 0.00 | 59 | 1009.5 |
| 20260903191328 | 91 | 190 | 1.7 | 9.6 | 0.00 | 0.00 | 0.00 | 61 | 1009.8 |